Location: Croissy-Beaubourg
(48.8283°N, 2.6696°E)
Time: 15:23:59
(UTC+00:00)

IRS-1C Rocket - Pass Details

Date: 16 October 2021
Orbit: 801 x 805 km, 98.9° (Epoch: 29 November)

Event Time Altitude Azimuth Distance (km) Brightness Sun altitude
Rises 18:49:33 0° 166° (SSE) 3,298 7.1 -19.2°
Reaches altitude 10° 18:51:53 10° 167° (SSE) 2,373 6.3 -19.5°
Maximum altitude 18:57:08 81° 254° (WSW) 819 4.1 -20.4°
Drops below altitude 10° 19:02:26 10° 343° (NNW) 2,392 6.9 -21.3°
Sets 19:04:47 0° 345° (NNW) 3,328 7.7 -21.6°
